Waarnemingen

Advertentie
Mijn weer
Arkona, Duitsland (10091): temperatuur & dauwpunt: 13.06.2018 02:00:00 - 19.06.2018 02:00:00 (CEST)Arkona, Duitsland (10091): temperatuur 5cm & temperatuur -5cm: 13.06.2018 02:00:00 - 19.06.2018 02:00:00 (CEST)Arkona, Duitsland (10091): temperatuur -20cm & temperatuur -100cm: 13.06.2018 02:00:00 - 19.06.2018 02:00:00 (CEST)Arkona, Duitsland (10091): water temperatuur: 13.06.2018 02:00:00 - 19.06.2018 02:00:00 (CEST)Arkona, Duitsland (10091): windsnelheid & windstoten: 13.06.2018 02:00:00 - 19.06.2018 02:00:00 (CEST)Arkona, Duitsland (10091): windrichting: 13.06.2018 02:00:00 - 19.06.2018 02:00:00 (CEST)Arkona, Duitsland (10091): luchtdruk: 13.06.2018 02:00:00 - 19.06.2018 02:00:00 (CEST)Arkona, Duitsland (10091): zicht: 13.06.2018 02:00:00 - 19.06.2018 02:00:00 (CEST)Arkona, Duitsland (10091): Zonneschijnduur: 13.06.2018 02:00:00 - 19.06.2018 02:00:00 (CEST)Arkona, Duitsland (10091): neerslag: 13.06.2018 02:00:00 - 19.06.2018 02:00:00 (CEST)
Datum & Tijd tt [°C] td [°C] tt 5cm [°C] tt -5cm [°C] tt -20cm [°C] tt -100cm [°C] tw [°C] ff [km/u] ff [kn] fx [km/u] fx [kn] dd ppp [hPa] vv [km] sd [min] rr [mm]
19.06.2018 02:00:00 - - - - - - - - - - - - - - - -
19.06.2018 01:00:00 16,1 15,3 16,0 20,5 23,1 17,2 18,0 17 9 24 13 WZW 1016,8 5 0 0,0
19.06.2018 00:00:00 15,7 14,8 15,7 21,3 23,4 17,2 18,1 19 11 36 19 WZW 1017,0 20 0 1,6
18.06.2018 23:00:00 17,3 14,7 17,4 22,8 23,8 17,2 18,2 11 6 18 10 WZW 1017,4 15 0 0,0
18.06.2018 22:00:00 17,8 14,0 17,9 23,6 24,1 17,2 18,2 13 7 27 15 WZW 1017,3 19 0 0,0
18.06.2018 21:00:00 17,9 13,5 18,2 24,8 24,3 17,2 18,3 16 9 28 15 WZW 1017,2 17 15 0,0
18.06.2018 20:00:00 19,0 12,9 20,1 26,3 24,5 17,2 18,4 22 12 33 18 WZW 1017,2 23 4 0,0
18.06.2018 19:00:00 19,0 11,9 20,1 28,5 24,5 17,2 18,4 18 10 27 15 WZW 1017,4 35 7 0,0
18.06.2018 18:00:00 19,4 11,0 20,9 30,1 24,2 17,2 18,4 20 11 28 15 WZW 1017,7 48 35 0,0
18.06.2018 17:00:00 19,1 11,2 23,0 31,3 23,8 17,2 18,4 15 8 31 17 WNW 1018,0 41 48 0,0
18.06.2018 16:00:00 19,6 12,1 25,2 30,9 23,3 17,2 18,2 20 11 30 16 WNW 1018,3 17 48 0,0
18.06.2018 15:00:00 18,9 12,2 23,3 29,4 22,9 17,2 17,8 16 9 31 17 WNW 1018,4 19 33 0,0
18.06.2018 14:00:00 17,9 11,8 20,6 29,4 22,4 17,2 17,7 9 5 24 13 W 1018,4 34 18 0,0
18.06.2018 13:00:00 18,8 12,4 24,8 30,8 21,6 17,2 17,6 14 8 32 17 W 1018,5 26 55 0,0
18.06.2018 12:00:00 18,7 11,3 24,2 28,8 20,9 17,2 17,6 16 9 37 20 W 1018,5 33 59 0,0
18.06.2018 11:00:00 19,4 11,4 24,3 25,3 20,5 17,2 17,5 20 11 35 19 WZW 1018,8 34 43 0,0
18.06.2018 10:00:00 18,1 10,6 21,8 23,0 20,2 17,2 17,5 21 12 34 18 WZW 1018,4 33 33 0,0
18.06.2018 09:00:00 17,1 10,0 18,7 20,7 20,2 17,2 17,5 22 12 30 16 WZW 1018,4 53 0 0,0
18.06.2018 08:00:00 16,4 11,5 17,2 19,2 20,2 17,2 17,5 16 8 20 11 WZW 1018,5 43 0 0,0
18.06.2018 07:00:00 15,5 12,4 16,1 18,2 20,4 17,2 17,5 12 6 17 9 ZW 1018,4 31 18 0,0
18.06.2018 06:00:00 13,4 10,4 12,1 17,4 20,7 17,2 17,4 13 7 17 9 WZW 1018,0 40 14 0,0
18.06.2018 05:00:00 13,6 9,9 12,3 17,9 21,0 17,2 17,4 13 7 21 11 WZW 1017,6 45 0 0,0
18.06.2018 04:00:00 15,6 9,7 14,8 18,6 21,2 17,2 17,4 19 10 26 14 W 1017,7 52 0 0,0
18.06.2018 03:00:00 16,1 9,9 15,5 19,0 21,5 17,2 17,4 18 10 29 16 W 1017,7 54 0 0,0
18.06.2018 02:00:00 16,3 9,6 15,7 19,1 21,8 17,2 17,5 21 12 29 15 W 1017,5 61 0 0,0
18.06.2018 01:00:00 14,8 10,8 14,1 19,3 22,2 17,1 17,5 20 11 24 13 W 1017,2 42 0 0,0
18.06.2018 00:00:00 14,4 12,1 13,2 20,0 22,6 17,1 17,6 21 11 23 12 W 1016,9 30 0 0,0
17.06.2018 23:00:00 15,0 11,9 14,7 20,7 23,0 17,1 17,5 18 10 21 12 WZW 1016,8 37 0 0,0
17.06.2018 22:00:00 15,5 12,4 14,7 22,0 23,3 17,1 17,6 17 9 21 11 W 1016,5 31 0 0,0
17.06.2018 21:00:00 17,0 12,7 16,8 23,3 23,6 17,1 17,6 16 8 34 19 W 1016,2 36 0 0,0
17.06.2018 20:00:00 17,9 13,5 18,2 24,8 23,7 17,1 17,6 25 13 36 19 W 1015,8 30 3 0,0
17.06.2018 19:00:00 18,7 11,4 19,5 26,5 23,7 17,1 17,5 22 12 37 20 W 1015,1 43 31 0,0
17.06.2018 18:00:00 19,2 11,4 21,7 28,4 23,5 17,1 17,5 28 15 42 23 W 1014,9 20 60 0,0
17.06.2018 17:00:00 19,7 11,0 22,7 29,3 23,0 17,1 17,5 32 17 48 26 W 1014,8 21 60 0,0
17.06.2018 16:00:00 19,9 10,8 23,9 29,4 22,5 17,1 17,5 37 20 55 30 W 1014,4 22 60 0,0
17.06.2018 15:00:00 19,7 11,5 23,9 28,8 21,9 17,1 17,5 37 20 53 29 W 1014,3 13 60 0,0
17.06.2018 14:00:00 19,2 12,0 23,5 26,9 21,5 17,1 17,5 30 16 45 24 W 1014,1 20 51 0,0
17.06.2018 13:00:00 18,6 11,6 21,4 23,5 21,3 17,1 17,5 31 17 42 23 WZW 1014,1 11 4 0,0
17.06.2018 12:00:00 17,5 14,2 18,7 23,7 21,1 17,1 17,3 27 15 37 20 WZW 1013,9 10 13 0,0
17.06.2018 11:00:00 19,1 15,4 21,9 21,9 21,1 17,1 17,3 21 12 31 17 WZW 1013,5 31 15 0,1
17.06.2018 10:00:00 16,0 14,5 16,0 20,3 21,2 17,1 17,3 16 8 25 14 W 1013,5 10 0 0,0
17.06.2018 09:00:00 15,7 14,0 15,5 20,5 21,2 17,1 17,3 16 9 42 23 WNW 1012,9 12 0 0,2
17.06.2018 08:00:00 17,1 14,3 17,6 20,9 21,3 17,1 17,3 25 14 49 26 WNW 1012,5 13 12 0,0
17.06.2018 07:00:00 18,6 15,2 19,1 20,3 21,4 17,1 17,3 15 8 30 16 ZW 1012,4 18 31 0,0
17.06.2018 06:00:00 17,1 14,7 17,1 19,4 21,7 17,1 17,3 15 8 21 11 ZZW 1012,3 16 2 0,0
17.06.2018 05:00:00 17,0 14,3 16,1 19,5 21,9 17,1 17,2 18 10 29 15 ZZW 1012,4 19 0 0,0
17.06.2018 04:00:00 17,4 13,7 16,6 19,9 22,2 17,1 17,3 23 12 32 17 ZZW 1012,6 22 0 0,0
17.06.2018 03:00:00 17,9 13,5 17,5 20,3 22,5 17,1 17,3 21 12 28 15 Z 1012,8 25 0 0,0
17.06.2018 02:00:00 17,9 13,2 17,0 20,7 22,8 17,1 17,4 18 10 36 19 ZZO 1013,2 31 0 0,0
17.06.2018 01:00:00 18,4 12,2 18,2 21,1 23,2 17,1 17,4 29 16 44 24 ZO 1013,4 37 0 0,0
17.06.2018 00:00:00 17,6 12,7 17,4 21,3 23,6 17,0 17,5 36 19 45 24 OZO 1014,0 29 0 0,0
16.06.2018 23:00:00 16,9 13,7 16,3 21,9 24,0 17,0 17,6 30 16 46 25 O 1014,2 32 0 0,0
16.06.2018 22:00:00 17,1 13,6 16,6 23,0 24,4 17,0 17,6 18 10 38 21 O 1014,4 33 0 0,0
16.06.2018 21:00:00 17,1 13,9 16,8 24,7 24,7 17,0 17,7 16 9 41 22 O 1014,5 37 0 0,0
16.06.2018 20:00:00 17,8 14,0 18,5 26,9 24,9 17,0 17,7 15 8 36 19 O 1014,7 33 32 0,0
16.06.2018 19:00:00 18,4 14,1 20,5 28,0 24,9 17,0 17,8 11 6 31 17 O 1015,1 33 5 0,0
16.06.2018 18:00:00 18,2 13,7 20,5 29,6 24,9 17,0 17,9 8 5 34 19 ONO 1015,3 35 27 0,0
16.06.2018 17:00:00 19,0 14,2 22,5 30,7 24,6 17,0 17,9 12 7 35 19 O 1015,9 39 38 0,0
16.06.2018 16:00:00 19,0 13,7 22,5 32,4 24,1 17,0 17,9 11 6 39 21 O 1016,4 34 57 0,0
16.06.2018 15:00:00 19,0 13,5 25,2 33,1 23,4 17,0 17,9 10 5 30 16 O 1016,6 32 60 0,0
16.06.2018 14:00:00 19,1 13,1 26,5 32,3 22,6 17,0 17,8 11 6 33 18 O 1017,3 24 60 0,0
16.06.2018 13:00:00 20,3 14,2 24,8 31,0 21,9 17,0 17,8 15 8 29 16 O 1018,0 23 60 0,0
16.06.2018 12:00:00 20,4 14,1 25,7 28,5 21,2 17,0 17,8 9 5 23 12 O 1018,2 32 58 0,0
16.06.2018 11:00:00 19,3 12,9 24,3 26,4 20,7 17,0 17,7 8 4 23 13 O 1018,2 29 44 0,0
16.06.2018 10:00:00 19,0 13,5 22,2 23,5 20,4 17,0 17,4 8 4 19 11 O 1018,3 34 27 0,0
16.06.2018 09:00:00 17,2 13,5 18,8 21,2 20,3 17,0 17,3 4 2 13 7 NO 1018,1 30 0 0,0
16.06.2018 08:00:00 17,8 13,4 19,2 20,2 20,3 17,0 17,3 5 3 11 6 O 1018,2 30 54 0,0
16.06.2018 07:00:00 16,4 13,4 15,6 17,5 20,5 17,0 17,3 5 3 8 4 O 1018,3 23 60 0,0
16.06.2018 06:00:00 14,5 12,5 12,1 16,9 20,9 17,0 17,3 7 4 10 5 Z 1018,3 23 45 0,0
16.06.2018 05:00:00 14,1 11,3 11,3 17,0 21,3 17,0 17,3 9 5 15 8 ZW 1018,3 27 0 0,0
16.06.2018 04:00:00 13,4 11,1 11,3 17,4 21,7 17,0 17,3 14 8 17 9 ZW 1018,4 25 0 0,0
16.06.2018 03:00:00 12,9 11,0 10,4 17,9 22,2 17,0 17,4 16 9 17 9 ZW 1018,5 22 0 0,0
16.06.2018 02:00:00 13,2 11,0 10,9 18,5 22,7 17,0 17,4 17 9 18 10 ZW 1018,1 26 0 0,0
16.06.2018 01:00:00 13,1 10,3 10,5 19,3 23,2 17,0 17,4 15 8 18 10 ZZW 1018,0 30 0 0,0
16.06.2018 00:00:00 13,7 9,6 11,5 20,2 23,7 17,0 17,4 13 7 14 8 ZZW 1018,0 38 0 0,0
15.06.2018 23:00:00 14,6 10,1 11,9 21,3 24,3 17,0 17,4 10 5 13 7 W 1018,2 40 0 0,0
15.06.2018 22:00:00 15,6 10,1 13,9 23,0 24,8 17,0 17,5 11 6 12 6 W 1018,1 45 18 0,0
15.06.2018 21:00:00 16,7 10,8 15,1 25,0 25,1 17,0 17,5 7 4 13 7 W 1017,8 44 58 0,0
15.06.2018 20:00:00 17,5 10,7 18,5 27,7 25,3 17,0 17,6 9 5 20 11 WNW 1017,7 37 60 0,0
15.06.2018 19:00:00 18,2 10,9 20,9 30,0 25,3 17,0 17,7 13 7 24 13 W 1017,5 33 60 0,0
15.06.2018 18:00:00 18,1 9,3 22,0 31,7 25,0 17,0 17,7 19 10 27 15 W 1017,6 34 60 0,0
15.06.2018 17:00:00 18,4 10,6 22,8 32,6 24,6 17,0 17,8 18 10 29 16 W 1017,6 22 60 0,0
15.06.2018 16:00:00 18,4 11,5 24,1 33,8 23,9 17,0 17,7 17 9 27 14 W 1017,6 18 60 0,0
15.06.2018 15:00:00 18,0 10,2 25,1 33,4 23,2 17,0 17,5 14 8 29 16 WNW 1017,6 25 60 0,0
15.06.2018 14:00:00 17,8 10,8 24,0 32,1 22,4 17,0 17,4 17 9 28 15 WNW 1017,6 21 60 0,0
15.06.2018 13:00:00 17,2 10,7 23,5 30,4 21,7 17,0 17,3 18 10 29 16 W 1017,4 28 60 0,0
15.06.2018 12:00:00 17,8 12,1 23,1 27,6 21,2 17,0 17,2 18 10 28 15 W 1017,1 27 57 0,0
15.06.2018 11:00:00 16,5 11,6 21,0 25,5 20,8 17,0 17,2 18 10 29 16 W 1016,9 31 58 0,0
15.06.2018 10:00:00 16,9 11,8 20,4 24,2 20,5 17,0 17,1 21 11 32 17 W 1016,3 29 60 0,0
15.06.2018 09:00:00 16,3 11,5 19,0 21,2 20,5 17,0 17,1 20 11 28 15 W 1016,0 18 33 0,0
15.06.2018 08:00:00 16,2 12,7 17,3 19,9 20,5 17,0 17,1 19 10 25 14 W 1015,5 21 5 0,0
15.06.2018 07:00:00 16,1 13,2 16,6 19,3 20,7 17,0 17,1 11 6 20 11 W 1014,8 17 5 0,0
15.06.2018 06:00:00 15,4 13,2 15,0 19,0 20,9 17,0 17,1 16 9 24 13 W 1014,5 12 0 0,0
15.06.2018 05:00:00 15,3 13,9 14,9 19,3 21,1 17,0 17,1 18 10 29 16 WZW 1014,2 4,5 0 0,0
15.06.2018 04:00:00 16,0 12,9 15,9 19,5 21,4 17,0 17,1 22 12 32 17 W 1014,1 9 0 0,0
15.06.2018 03:00:00 15,9 13,0 15,8 19,8 21,7 17,0 17,0 16 9 23 12 WZW 1014,0 7 0 0,0
15.06.2018 02:00:00 15,9 12,4 15,8 20,1 22,0 17,0 17,0 16 8 23 12 WZW 1013,7 9 0 0,0
15.06.2018 01:00:00 15,5 12,6 15,4 20,4 22,3 17,0 17,1 12 6 26 14 WZW 1013,7 11 0 0,0
15.06.2018 00:00:00 16,3 12,7 16,1 21,1 22,6 17,0 17,1 20 11 36 19 W 1013,6 11 0 0,0
14.06.2018 23:00:00 17,5 10,1 17,2 21,7 23,0 17,0 17,2 22 12 28 15 ZZW 1013,1 45 0 0,0
14.06.2018 22:00:00 17,5 10,5 17,3 22,7 23,3 17,1 17,2 19 10 23 13 ZZW 1013,1 49 0 0,0
14.06.2018 21:00:00 17,0 10,7 16,4 24,3 23,6 17,1 17,2 15 8 19 11 ZZW 1012,9 45 10 0,0
14.06.2018 20:00:00 18,8 10,5 20,1 26,4 23,6 17,1 17,3 6 4 9 5 Z 1012,8 46 6 0,0
14.06.2018 19:00:00 18,5 10,9 20,7 28,6 23,5 17,1 17,3 5 3 12 7 OZO 1012,7 50 42 0,0
14.06.2018 18:00:00 18,9 11,2 23,2 28,2 23,2 17,1 17,3 8 4 18 10 ONO 1013,0 33 18 0,0
14.06.2018 17:00:00 17,4 11,0 20,6 31,0 22,7 17,1 17,3 11 6 15 8 NO 1013,2 41 36 0,0
14.06.2018 16:00:00 19,6 10,1 25,1 31,4 22,0 17,1 17,2 11 6 29 16 ZZO 1013,5 31 51 0,0
14.06.2018 15:00:00 18,6 9,2 21,4 30,3 21,3 17,1 17,2 17 9 29 16 ZW 1014,0 40 44 0,0
14.06.2018 14:00:00 18,4 8,8 22,3 28,9 20,6 17,1 17,1 18 10 32 17 WZW 1014,2 29 44 0,0
14.06.2018 13:00:00 18,1 8,9 22,3 27,3 20,0 17,1 17,1 19 10 28 15 WZW 1014,3 33 47 0,0
14.06.2018 12:00:00 17,5 9,1 22,1 23,8 19,6 17,1 17,0 21 11 32 17 ZW 1014,6 29 32 0,0
14.06.2018 11:00:00 15,7 9,6 17,9 22,0 19,2 17,1 16,9 16 9 32 17 ZW 1014,9 53 10 0,0
14.06.2018 10:00:00 15,3 7,9 18,8 20,3 19,1 17,1 16,8 16 9 34 18 W 1014,7 18 7 0,0
14.06.2018 09:00:00 14,6 8,0 16,3 18,4 19,1 17,1 16,8 22 12 30 16 W 1014,5 55 0 0,0
14.06.2018 08:00:00 14,5 6,9 15,5 17,8 19,1 17,1 16,8 22 12 33 18 W 1014,3 62 6 0,0
14.06.2018 07:00:00 14,2 6,7 14,7 16,9 19,3 17,1 16,9 16 9 31 17 W 1014,2 70 8 0,0
14.06.2018 06:00:00 13,5 6,4 12,8 16,3 19,5 17,1 16,8 21 12 32 17 W 1014,2 70 2 0,0
14.06.2018 05:00:00 13,8 7,5 12,8 16,3 19,8 17,1 16,8 25 14 34 19 W 1013,8 63 0 0,0
14.06.2018 04:00:00 14,4 9,0 13,4 16,6 20,1 17,1 16,9 23 13 39 21 WNW 1013,5 64 0 0,0
14.06.2018 03:00:00 14,4 9,9 13,4 17,0 20,4 17,1 16,8 29 16 39 21 W 1013,2 56 0 0,0
14.06.2018 02:00:00 14,7 9,6 13,5 17,3 20,7 17,1 16,9 23 12 37 20 W 1012,7 51 0 0,0
14.06.2018 01:00:00 15,0 10,3 14,1 17,9 21,1 17,2 17,0 30 16 44 24 W 1012,8 48 0 0,0
14.06.2018 00:00:00 15,5 10,5 14,7 18,6 21,4 17,2 17,1 34 19 47 25 W 1012,9 41 0 0,0
13.06.2018 23:00:00 16,0 11,2 14,8 19,2 21,8 17,2 17,1 21 11 35 19 W 1012,2 46 0 0,0
13.06.2018 22:00:00 14,9 11,9 14,0 20,3 22,1 17,2 17,1 24 13 33 18 WZW 1011,7 40 23 0,0
13.06.2018 21:00:00 16,3 12,0 15,9 21,7 22,3 17,2 17,1 19 11 37 20 W 1011,0 52 30 0,0
13.06.2018 20:00:00 17,3 11,5 17,8 23,1 22,5 17,2 17,1 26 14 36 19 W 1010,6 48 9 0,0
13.06.2018 19:00:00 17,0 11,3 17,8 23,7 22,5 17,2 17,1 20 11 32 18 W 1010,5 53 0 0,0
13.06.2018 18:00:00 16,8 11,2 18,0 25,2 22,4 17,2 17,0 23 12 32 17 W 1010,2 50 0 0,0
13.06.2018 17:00:00 16,6 10,7 18,5 27,1 22,1 17,2 17,0 27 14 40 22 W 1010,1 33 20 0,0
13.06.2018 16:00:00 17,5 11,2 22,3 27,8 21,7 17,2 16,9 27 15 39 21 W 1009,9 22 44 0,0
13.06.2018 15:00:00 16,0 10,8 19,5 26,8 21,3 17,2 16,9 28 15 41 22 W 1010,0 25 33 0,0
13.06.2018 14:00:00 15,4 11,2 18,3 24,3 21,1 17,2 16,9 26 14 38 21 W 1010,0 23 14 0,0
13.06.2018 13:00:00 15,3 11,5 17,9 23,3 20,8 17,2 16,8 26 14 38 21 W 1010,0 24 11 0,0
13.06.2018 12:00:00 15,5 11,4 17,6 23,6 20,5 17,2 16,7 27 15 37 20 W 1009,6 33 6 0,0
13.06.2018 11:00:00 15,7 12,3 18,4 23,0 20,3 17,2 16,8 23 12 34 18 W 1009,4 19 27 0,0
13.06.2018 10:00:00 15,5 12,7 18,3 21,2 20,2 17,2 16,9 21 11 30 16 W 1009,1 16 2 0,0
13.06.2018 09:00:00 15,4 12,9 17,3 19,9 20,2 17,2 17,0 14 8 27 14 WNW 1009,2 20 0 0,0
13.06.2018 08:00:00 15,0 13,0 15,6 18,9 20,3 17,2 17,1 16 9 27 15 WNW 1009,0 21 0 0,0
13.06.2018 07:00:00 15,2 12,6 15,7 18,5 20,4 17,2 17,1 16 9 28 15 WNW 1008,8 25 0 0,0
13.06.2018 06:00:00 15,1 13,4 15,3 18,4 20,6 17,2 17,1 19 11 30 16 W 1008,5 16 0 0,0
13.06.2018 05:00:00 15,1 13,6 15,1 18,4 20,8 17,2 17,1 21 11 29 16 W 1008,4 14 0 0,0
13.06.2018 04:00:00 14,9 13,5 14,8 18,6 21,0 17,2 17,1 21 11 28 15 W 1008,7 16 0 0,0
13.06.2018 03:00:00 14,9 13,4 14,8 18,8 21,3 17,2 17,1 18 10 26 14 W 1009,0 16 0 0,0
13.06.2018 02:00:00 15,0 13,4 14,9 18,9 21,6 17,2 17,2 18 10 27 15 W 1008,9 21 0 0,0

tt = temperatuur
td = dauwpunt
tt 5cm = temperatuur 5cm
tt -5cm = temperatuur -5cm
tt -20cm = temperatuur -20cm
tt -100cm = temperatuur -100cm
tw = water temperatuur
ff = windsnelheid
fx = windstoten
dd = windrichting
ppp = luchtdruk
vv = zicht
sd = Zonneschijnduur
rr = neerslag

Weerstations in de omgeving